Lincolnton, NC

4:50 PM EDT on June 23, 2017 (GMT -0400)
Lincolnton-Lincoln County Regional

Weather History for KIPJ - April, 2012

Change the Weather History Date:

Thursday, April 26, 2012

  Actual Average (KCLT) Record (KCLT)
Temperature  
Mean Temperature 62 °F -  
Max Temperature 73 °F 73 °F 92 °F (1915)
Min Temperature 50 °F 49 °F 34 °F (1910)
Degree Days  
Heating Degree Days 4    
Growing Degree Days 12 (Base 50)    
Moisture  
Dew Point 57 °F    
Average Humidity 83    
Maximum Humidity 100    
Minimum Humidity 60    
Precipitation  
Precipitation 0.07 in - - ()
Sea Level Pressure  
Sea Level Pressure 29.84 in    
Wind  
Wind Speed 4 mph (WSW)    
Max Wind Speed 16 mph    
Max Gust Speed 31 mph    
Visibility 8 miles    
Events Rain    
Averages and records for this station are not official NWS values.
T = Trace of Precipitation, MM = Missing Value Source: NWS Daily Summary

Daily Weather History Graph

Daily Weather History Graph

Search for Another Location

Airport or City:

Trip Planner

Search our weather history database for the weather conditions in past years. The results will help you decide how hot, cold, wet, or windy it might be!

Date:

Astronomy

Apr. 26, 2012 Rise Set
Actual Time 6:38 AM EDT 8:07 PM EDT
Civil Twilight 6:11 AM EDT 8:34 PM EDT
Nautical Twilight 5:38 AM EDT 9:06 PM EDT
Astronomical Twilight 5:04 AM EDT 9:40 PM EDT
Moon 10:20 AM EDT (4/26) 12:06 AM EDT (4/26)
Length of Visible Light 14h 23m
Length of Day
13h 29m
Waxing Crescent, 24% of the Moon is Illuminated
Apr 26
Waxing Crescent
Apr 29
First Quarter
May 5
Full
May 12
Last Quarter
May 20
New

Hourly Weather History & Observations

Time (EDT) Temp. Dew Point Humidity Pressure Visibility Wind Dir Wind Speed Gust Speed Precip Events Conditions
12:15 AM 55.4 °F 53.6 °F 94% 29.87 in 4.0 mi Calm Calm - N/A   Mostly Cloudy
12:35 AM 55.4 °F 55.4 °F 100% 29.87 in 7.0 mi Calm Calm - N/A   Overcast
12:55 AM 55.4 °F 55.4 °F 100% 29.87 in 7.0 mi Calm Calm - N/A   Mostly Cloudy
1:15 AM 55.4 °F 55.4 °F 100% 29.85 in 7.0 mi Calm Calm - N/A   Mostly Cloudy
1:35 AM 55.4 °F 53.6 °F 94% 29.84 in 7.0 mi Calm Calm - N/A   Scattered Clouds
1:55 AM 55.4 °F 53.6 °F 94% 29.84 in 5.0 mi SW 3.5 mph - N/A   Clear
2:15 AM 53.6 °F 53.6 °F 100% 29.84 in 5.0 mi Calm Calm - N/A   Clear
2:35 AM 55.4 °F 53.6 °F 94% 29.83 in 7.0 mi Calm Calm - N/A   Clear
2:55 AM 53.6 °F 53.6 °F 100% 29.81 in 5.0 mi Calm Calm - N/A   Clear
3:15 AM 53.6 °F 53.6 °F 100% 29.82 in 7.0 mi Calm Calm - N/A   Clear
3:35 AM 53.6 °F 53.6 °F 100% 29.82 in 7.0 mi Calm Calm - N/A   Clear
3:55 AM 53.6 °F 51.8 °F 94% 29.81 in 4.0 mi Calm Calm - N/A   Clear
4:15 AM 51.8 °F 51.8 °F 100% 29.82 in 4.0 mi Calm Calm - N/A   Clear
4:35 AM 53.6 °F 51.8 °F 94% 29.83 in 5.0 mi Calm Calm - N/A   Clear
4:55 AM 51.8 °F 51.8 °F 100% 29.83 in 5.0 mi Calm Calm - N/A   Clear
5:15 AM 50.0 °F 50.0 °F 100% 29.82 in 1.5 mi Calm Calm - N/A   Mist
5:35 AM 51.8 °F 50.0 °F 94% 29.83 in 3.0 mi Calm Calm - N/A   Clear
5:55 AM 50.0 °F 50.0 °F 100% 29.82 in 3.0 mi Calm Calm - N/A   Clear
6:15 AM 50.0 °F 48.2 °F 94% 29.82 in 1.5 mi Calm Calm - N/A   Mist
6:35 AM 50.0 °F 50.0 °F 100% 29.82 in 3.0 mi Calm Calm - N/A   Clear
6:55 AM 50.0 °F 50.0 °F 100% 29.82 in 2.5 mi Calm Calm - N/A   Clear
7:15 AM 50.0 °F 50.0 °F 100% 29.83 in 3.0 mi Calm Calm - N/A   Clear
7:35 AM 51.8 °F 50.0 °F 94% 29.82 in 3.0 mi Calm Calm - N/A   Clear
7:55 AM 53.6 °F 53.6 °F 100% 29.82 in 4.0 mi Calm Calm - N/A   Clear
8:15 AM 55.4 °F 53.6 °F 94% 29.82 in 5.0 mi Calm Calm - N/A   Clear
8:35 AM 60.8 °F 57.2 °F 88% 29.80 in 10.0 mi SSW 6.9 mph - N/A   Clear
8:55 AM 64.4 °F 55.4 °F 73% 29.80 in 10.0 mi SW 12.7 mph 18.4 mph N/A   Clear
9:15 AM 66.2 °F 55.4 °F 68% 29.81 in 10.0 mi SW 16.1 mph 24.2 mph N/A   Clear
9:35 AM 64.4 °F 55.4 °F 73% 29.83 in 10.0 mi WSW 13.8 mph 19.6 mph N/A   Scattered Clouds
9:55 AM 62.6 °F 55.4 °F 77% 29.88 in 5.0 mi WSW 10.4 mph 31.1 mph 0.02 in Rain Rain
10:15 AM 60.8 °F 59.0 °F 94% 29.85 in 10.0 mi SW 6.9 mph - N/A   Mostly Cloudy
10:35 AM 60.8 °F 59.0 °F 94% 29.84 in 10.0 mi SW 8.1 mph - N/A   Mostly Cloudy
10:55 AM 60.8 °F 59.0 °F 94% 29.85 in 10.0 mi SW 10.4 mph 17.3 mph 0.02 in Rain Rain
11:15 AM 60.8 °F 57.2 °F 88% 29.82 in 10.0 mi SSW 11.5 mph 16.1 mph 0.03 in Rain Light Rain
11:35 AM 60.8 °F 57.2 °F 88% 29.84 in 10.0 mi West 6.9 mph - 0.03 in   Mostly Cloudy
11:55 AM 60.8 °F 59.0 °F 94% 29.85 in 10.0 mi West 8.1 mph - 0.03 in   Clear
12:15 PM 62.6 °F 59.0 °F 88% 29.85 in 10.0 mi West 9.2 mph - N/A   Clear
12:35 PM 66.2 °F 60.8 °F 83% 29.85 in 10.0 mi SW 12.7 mph 19.6 mph N/A   Clear
12:55 PM 68.0 °F 59.0 °F 73% 29.86 in 10.0 mi WSW 15.0 mph - N/A   Mostly Cloudy
1:15 PM 69.8 °F 59.0 °F 68% 29.85 in 10.0 mi SW 15.0 mph 18.4 mph N/A   Mostly Cloudy
1:35 PM 69.8 °F 59.0 °F 68% 29.85 in 10.0 mi SW 13.8 mph 24.2 mph N/A   Scattered Clouds
1:55 PM 71.6 °F 59.0 °F 64% 29.84 in 10.0 mi SW 12.7 mph 16.1 mph N/A   Scattered Clouds
2:15 PM 71.6 °F 59.0 °F 64% 29.85 in 10.0 mi SW 15.0 mph 19.6 mph N/A   Clear
2:35 PM 73.4 °F 59.0 °F 61% 29.85 in 10.0 mi SW 16.1 mph - N/A   Clear
2:55 PM 71.6 °F 57.2 °F 60% 29.85 in 10.0 mi SW 12.7 mph 18.4 mph N/A   Clear
3:15 PM 71.6 °F 59.0 °F 64% 29.83 in 10.0 mi SW 9.2 mph - N/A   Clear
3:35 PM 71.6 °F 59.0 °F 64% 29.84 in 10.0 mi SW 11.5 mph 20.7 mph N/A   Clear
3:55 PM 71.6 °F 59.0 °F 64% 29.83 in 10.0 mi SSW 8.1 mph - N/A   Scattered Clouds
4:15 PM 71.6 °F 59.0 °F 64% 29.83 in 10.0 mi SW 9.2 mph - N/A   Clear
4:35 PM 69.8 °F 60.8 °F 73% 29.83 in 10.0 mi SW 8.1 mph - N/A   Clear
4:55 PM 69.8 °F 60.8 °F 73% 29.83 in 10.0 mi SW 12.7 mph 18.4 mph N/A   Clear
5:15 PM 69.8 °F 60.8 °F 73% 29.83 in 10.0 mi SW 10.4 mph - N/A   Clear
5:35 PM 69.8 °F 60.8 °F 73% 29.83 in 10.0 mi WSW 12.7 mph - N/A   Clear
5:55 PM 69.8 °F 60.8 °F 73% 29.83 in 10.0 mi WSW 10.4 mph - N/A Rain Light Rain
6:15 PM 71.6 °F 60.8 °F 69% 29.83 in 10.0 mi WSW 12.7 mph 18.4 mph N/A   Clear
6:35 PM 71.6 °F 60.8 °F 69% 29.82 in 10.0 mi WSW 11.5 mph 19.6 mph N/A   Clear
6:55 PM 71.6 °F 60.8 °F 69% 29.83 in 10.0 mi West 11.5 mph 18.4 mph N/A   Clear
7:15 PM 69.8 °F 60.8 °F 73% 29.83 in 10.0 mi West 9.2 mph - N/A   Clear
7:35 PM 69.8 °F 60.8 °F 73% 29.84 in 10.0 mi West 4.6 mph - N/A   Clear
7:55 PM 69.8 °F 60.8 °F 73% 29.85 in 10.0 mi West 3.5 mph - N/A   Clear
8:15 PM 68.0 °F 60.8 °F 78% 29.85 in 10.0 mi WSW 5.8 mph - N/A   Clear
8:35 PM 68.0 °F 60.8 °F 78% 29.85 in 10.0 mi West 5.8 mph - N/A   Clear
8:55 PM 68.0 °F 60.8 °F 78% 29.85 in 10.0 mi WSW 8.1 mph - N/A   Clear
9:15 PM 68.0 °F 60.8 °F 78% 29.85 in 10.0 mi WSW 8.1 mph - N/A   Clear
9:35 PM 68.0 °F 60.8 °F 78% 29.86 in 10.0 mi WSW 16.1 mph 20.7 mph N/A   Clear
9:55 PM 68.0 °F 59.0 °F 73% 29.85 in 10.0 mi SW 11.5 mph 24.2 mph N/A   Clear
10:15 PM 68.0 °F 57.2 °F 68% 29.87 in 10.0 mi WSW 12.7 mph 17.3 mph N/A   Clear
10:35 PM 68.0 °F 57.2 °F 68% 29.88 in 10.0 mi WSW 11.5 mph 17.3 mph N/A   Clear
10:55 PM 66.2 °F 57.2 °F 73% 29.88 in 10.0 mi WSW 11.5 mph - N/A   Clear
11:15 PM 68.0 °F 57.2 °F 68% 29.88 in 10.0 mi WSW 9.2 mph - N/A   Mostly Cloudy
11:35 PM 66.2 °F 57.2 °F 73% 29.88 in 10.0 mi WSW 11.5 mph - N/A   Mostly Cloudy